Change the Weather History Date:

Monday, April 15, 2013

  Actual Average Record
Temperature  
Mean Temperature 70 °F 60 °F  
Max Temperature 81 °F 72 °F 88 °F (1977)
Min Temperature 58 °F 48 °F 28 °F (2008)
Degree Days  
Heating Degree Days 0 7  
Month to date heating degree days 132 126  
Since 1 July heating degree days 3469 3454  
Cooling Degree Days 5 2  
Month to date cooling degree days 28 16  
Year to date cooling degree days 32 27  
Growing Degree Days 19 (Base 50)    
Moisture  
Dew Point 56 °F    
Average Humidity 66    
Maximum Humidity 86    
Minimum Humidity 45    
Precipitation  
Precipitation 0.00 in 0.15 in 1.87 in (1961)
Month to date precipitation 4.07 2.32  
Year to date precipitation 19.86 15.31  
Snow  
Snow 0.00 in 0.00 in - ()
Month to date snowfall 0.0 0.1  
Since 1 July snowfall 1.4 4.7  
Snow Depth 0.00 in    
Sea Level Pressure  
Sea Level Pressure 29.89 in    
Wind  
Wind Speed 8 mph (SSE)    
Max Wind Speed 16 mph    
Max Gust Speed 21 mph    
Visibility 10 miles    
Events      
T = Trace of Precipitation, MM = Missing Value Source: NWS Daily Summary

Daily Weather History Graph

Daily Weather History Graph

Search for Another Location

Airport or City:

Trip Planner

Search our weather history database for the weather conditions in past years. The results will help you decide how hot, cold, wet, or windy it might be!

Date:

Astronomy

Apr. 15, 2013 Rise Set
Actual Time 6:22 AM CDT 7:29 PM CDT
Civil Twilight 5:56 AM CDT 7:55 PM CDT
Nautical Twilight 5:25 AM CDT 8:26 PM CDT
Astronomical Twilight 4:52 AM CDT 8:59 PM CDT
Moon 9:54 AM CDT (4/15) No Moon Set
Length of Visible Light 13h 58m
Length of Day
13h 06m
Waxing Crescent, 25% of the Moon is Illuminated
Apr 15
Waxing Crescent
Apr 18
First Quarter
Apr 25
Full
May 2
Last Quarter
May 9
New

Hourly Weather History & Observations

Time (CDT) Temp. Heat Index Dew Point Humidity Pressure Visibility Wind Dir Wind Speed Gust Speed Precip Events Conditions
12:13 AM 60.8 °F - 51.8 °F 72% 29.85 in 10.0 mi SSE 9.2 mph 16.1 mph N/A   Mostly Cloudy
12:29 AM 60.8 °F - 51.8 °F 72% 29.85 in 10.0 mi South 6.9 mph - N/A   Overcast
12:53 AM 61.0 °F - 51.1 °F 70% 29.85 in 10.0 mi South 8.1 mph - N/A   Mostly Cloudy
1:53 AM 60.1 °F - 52.0 °F 75% 29.86 in 10.0 mi South 5.8 mph - N/A   Overcast
2:28 AM 60.8 °F - 51.8 °F 72% 29.87 in 10.0 mi South 5.8 mph - N/A   Overcast
2:45 AM 60.8 °F - 51.8 °F 72% 29.87 in 10.0 mi South 5.8 mph - N/A   Overcast
2:53 AM 59.0 °F - 52.0 °F 78% 29.86 in 10.0 mi South 5.8 mph - N/A   Overcast
3:53 AM 57.9 °F - 52.0 °F 81% 29.87 in 10.0 mi SSE 3.5 mph - N/A   Partly Cloudy
4:53 AM 57.9 °F - 53.1 °F 84% 29.89 in 10.0 mi SSE 6.9 mph - N/A   Overcast
5:53 AM 57.9 °F - 53.1 °F 84% 29.90 in 10.0 mi Variable 3.5 mph - N/A   Overcast
6:53 AM 57.9 °F - 53.1 °F 84% 29.92 in 10.0 mi SSE 8.1 mph - N/A   Mostly Cloudy
7:53 AM 59.0 °F - 54.0 °F 83% 29.93 in 10.0 mi SSE 6.9 mph - N/A   Mostly Cloudy
8:53 AM 63.0 °F - 55.9 °F 78% 29.93 in 10.0 mi South 10.4 mph - N/A   Clear
9:53 AM 68.0 °F - 57.0 °F 68% 29.93 in 10.0 mi SSE 9.2 mph - N/A   Clear
10:53 AM 72.0 °F - 57.9 °F 61% 29.94 in 10.0 mi SSE 9.2 mph - N/A   Clear
11:53 AM 75.9 °F - 57.9 °F 54% 29.93 in 10.0 mi SSE 10.4 mph - N/A   Scattered Clouds
12:53 PM 75.9 °F - 57.9 °F 54% 29.92 in 10.0 mi SSE 9.2 mph - N/A   Clear
1:53 PM 79.0 °F - 57.9 °F 48% 29.90 in 10.0 mi South 10.4 mph 17.3 mph N/A   Clear
2:53 PM 80.1 °F 80.6 °F 57.9 °F 47% 29.88 in 10.0 mi SSE 9.2 mph 18.4 mph N/A   Clear
3:53 PM 81.0 °F 81.3 °F 59.0 °F 47% 29.87 in 10.0 mi South 10.4 mph 18.4 mph N/A   Clear
4:53 PM 80.1 °F 80.4 °F 57.0 °F 45% 29.86 in 10.0 mi South 11.5 mph 20.7 mph N/A   Clear
5:53 PM 80.1 °F 80.4 °F 57.0 °F 45% 29.86 in 10.0 mi SSW 11.5 mph 18.4 mph N/A   Clear
6:53 PM 78.1 °F - 57.0 °F 48% 29.86 in 10.0 mi South 5.8 mph - N/A   Clear
7:53 PM 75.0 °F - 57.9 °F 55% 29.88 in 10.0 mi SSE 6.9 mph - N/A   Clear
8:53 PM 73.0 °F - 57.9 °F 59% 29.91 in 10.0 mi South 8.1 mph - N/A   Clear
9:53 PM 71.1 °F - 59.0 °F 66% 29.94 in 10.0 mi SSE 6.9 mph - N/A   Clear
10:53 PM 70.0 °F - 60.1 °F 71% 29.94 in 10.0 mi SSE 6.9 mph - N/A   Clear
11:53 PM 70.0 °F - 60.1 °F 71% 29.95 in 10.0 mi SSE 5.8 mph - N/A   Clear